Alexandria, LA

5:01 AM CDT on October 01, 2016 (GMT -0500)
Alexandria International

Weather History for KAEX - March, 2013

Change the Weather History Date:

Friday, March 8, 2013

  Actual Average Record
Temperature  
Mean Temperature 52 °F 58 °F  
Max Temperature 70 °F 69 °F 86 °F (1907)
Min Temperature 34 °F 46 °F 26 °F (1901)
Degree Days  
Heating Degree Days 13 8  
Month to date heating degree days 128 74  
Since 1 July heating degree days 1561 1739  
Cooling Degree Days 0 1  
Month to date cooling degree days 0 8  
Year to date cooling degree days 18 25  
Growing Degree Days 2 (Base 50)    
Moisture  
Dew Point 40 °F    
Average Humidity 66    
Maximum Humidity 100    
Minimum Humidity 32    
Precipitation  
Precipitation 0.00 in 0.18 in 3.65 in (1998)
Month to date precipitation T 1.37  
Year to date precipitation 16.45 11.05  
Snow  
Snow 0.00 in - T in (1920)
Month to date snowfall 0.0  
Since 1 July snowfall 0.0  
Snow Depth 0.00 in    
Sea Level Pressure  
Sea Level Pressure 30.22 in    
Wind  
Wind Speed 4 mph (SE)    
Max Wind Speed 15 mph    
Max Gust Speed 18 mph    
Visibility 10 miles    
Events      
T = Trace of Precipitation, MM = Missing Value Source: NWS Daily Summary

Daily Weather History Graph

Daily Weather History Graph

Search for Another Location

Airport or City:

Trip Planner

Search our weather history database for the weather conditions in past years. The results will help you decide how hot, cold, wet, or windy it might be!

Date:

Astronomy

Mar. 08, 2013 Rise Set
Actual Time 6:28 AM CST 6:13 PM CST
Civil Twilight 6:04 AM CST 6:37 PM CST
Nautical Twilight 5:36 AM CST 7:06 PM CST
Astronomical Twilight 5:08 AM CST 7:34 PM CST
Moon 4:02 AM CST (3/8) 3:18 PM CST (3/8)
Length of Visible Light 12h 33m
Length of Day
11h 45m
Waning Crescent, 11% of the Moon is Illuminated
Mar 8
Waning Crescent
Mar 11
New
Mar 19
First Quarter
Mar 27
Full
Apr 2
Last Quarter

Hourly Weather History & Observations

Time (CST) Temp. Dew Point Humidity Pressure Visibility Wind Dir Wind Speed Gust Speed Precip Events Conditions
12:53 AM 42.1 °F 36.0 °F 79% 30.25 in 10.0 mi Calm Calm - N/A   Clear
1:53 AM 41.0 °F 36.0 °F 82% 30.25 in 10.0 mi Calm Calm - N/A   Clear
2:53 AM 39.9 °F 36.0 °F 86% 30.23 in 10.0 mi Calm Calm - N/A   Clear
3:53 AM 37.9 °F 36.0 °F 93% 30.24 in 10.0 mi Calm Calm - N/A   Clear
4:53 AM 37.0 °F 34.0 °F 89% 30.24 in 10.0 mi Calm Calm - N/A   Clear
5:53 AM 36.0 °F 35.1 °F 97% 30.25 in 9.0 mi Calm Calm - N/A   Clear
6:53 AM 36.0 °F 35.1 °F 97% 30.28 in 7.0 mi Calm Calm - N/A   Clear
7:53 AM 43.0 °F 39.0 °F 86% 30.30 in 8.0 mi Calm Calm - N/A   Clear
9:53 AM 59.0 °F 42.1 °F 53% 30.30 in 10.0 mi ESE 6.9 mph - N/A   Clear
10:53 AM 63.0 °F 41.0 °F 45% 30.30 in 10.0 mi SSE 12.7 mph - N/A   Clear
11:53 AM 64.9 °F 43.0 °F 45% 30.28 in 10.0 mi SE 8.1 mph - N/A   Clear
12:53 PM 66.0 °F 42.1 °F 42% 30.25 in 10.0 mi SSE 6.9 mph - N/A   Clear
1:53 PM 68.0 °F 42.1 °F 39% 30.23 in 8.0 mi SSE 4.6 mph - N/A   Partly Cloudy
2:53 PM 69.1 °F 42.1 °F 38% 30.19 in 10.0 mi SSE 6.9 mph - N/A   Clear
3:53 PM 68.0 °F 37.9 °F 33% 30.17 in 10.0 mi SE 10.4 mph - N/A   Clear
4:53 PM 68.0 °F 44.1 °F 42% 30.16 in 10.0 mi SE 10.4 mph - N/A   Clear
5:53 PM 60.1 °F 44.1 °F 55% 30.16 in 10.0 mi SE 6.9 mph - N/A   Clear
6:53 PM 61.0 °F 42.1 °F 50% 30.18 in 10.0 mi Calm Calm - N/A   Clear
7:53 PM 57.9 °F 42.1 °F 56% 30.19 in 10.0 mi Calm Calm - N/A   Clear
8:53 PM 57.0 °F 45.0 °F 64% 30.18 in 10.0 mi ESE 4.6 mph - N/A   Clear
9:53 PM 57.0 °F 45.0 °F 64% 30.17 in 10.0 mi SSE 6.9 mph - N/A   Clear
10:53 PM 55.9 °F 44.1 °F 64% 30.14 in 10.0 mi SSE 4.6 mph - N/A   Clear
11:53 PM 55.0 °F 46.0 °F 72% 30.11 in 10.0 mi SSE 4.6 mph - N/A   Clear